Location: Czekanka
(50.4925°N, 19.2643°E)
Time: 06:51:31
(UTC+00:00)

SL-16 R/B - Pass Details

Date: 23 September 2024
Orbit: 842 x 846 km, 71.0° (Epoch: 05 October)

Event Time Altitude Azimuth Distance (km) Brightness Sun altitude
Rises 18:05:23 0° 212° (SSW) 3,393 5.5 -14.5°
Reaches altitude 10° 18:07:50 10° 213° (SSW) 2,461 4.8 -14.9°
Maximum altitude 18:13:29 79° 300° (WNW) 867 2.3 -15.7°
Drops below altitude 10° 18:19:11 10° 28° (NNE) 2,474 4.6 -16.6°
Sets 18:21:39 0° 30° (NNE) 3,413 5.3 -17.0°
